QPF
0.04 0.04 0.04 0.03 0.04 0.05 0.06 0.09 0.10 0.09 0.06 0.05 0.06 0.06 0.09 0.11 0.08 0.07 0.07 0.05 0.04 0.04 0.04 0.03 0.03 0.04 0.05 0.05 0.06 0.08 0.09 0.09 0.09 0.10 0.11 0.12 0.12 0.10
0.04 0.04 0.03 0.03 0.03 0.03 0.04 0.06 0.09 0.10 0.08 0.07 0.06 0.06 0.05 0.07 0.08 0.07 0.06 0.04 0.04 0.05 0.05 0.05 0.04 0.04 0.04 0.04 0.04 0.05 0.06 0.06 0.07 0.06 0.06 0.06 0.06 0.07
0.04 0.03 0.03 0.02 0.03 0.03 0.04 0.04 0.05 0.07 0.08 0.07 0.06 0.05 0.05 0.06 0.06 0.06 0.05 0.04 0.03 0.04 0.05 0.06 0.06 0.05 0.04 0.03 0.02 0.03 0.03 0.03 0.03 0.03 0.03 0.03 0.04 0.05
0.03 0.03 0.03 0.02 0.03 0.03 0.04 0.04 0.04 0.05 0.06 0.06 0.05 0.05 0.05 0.07 0.07 0.06 0.04 0.03 0.03 0.03 0.03 0.04 0.04 0.04 0.03 0.02 0.02 0.02 0.01 0.02 0.02 0.03 0.02 0.02 0.02 0.03
0.03 0.03 0.03 0.03 0.03 0.04 0.04 0.04 0.05 0.04 0.05 0.05 0.03 0.03 0.05 0.06 0.06 0.05 0.04 0.03 0.03 0.02 0.03 0.04 0.04 0.04 0.03 0.02 0.01 0.01 0.01 0.01 0.02 0.02 0.02 0.01 0.02 0.03
0.03 0.03 0.02 0.02 0.03 0.03 0.03 0.05 0.06 0.05 0.05 0.04 0.04 0.04 0.03 0.04 0.04 0.04 0.04 0.03 0.03 0.02 0.03 0.04 0.05 0.05 0.04 0.03 0.02 0.01 0.01 0.02 0.02 0.02 0.02 0.02 0.01 0.02
0.04 0.03 0.02 0.01 0.01 0.01 0.01 0.02 0.04 0.05 0.04 0.04 0.04 0.05 0.04 0.04 0.03 0.03 0.04 0.04 0.05 0.03 0.02 0.03 0.03 0.03 0.04 0.04 0.04 0.03 0.02 0.02 0.03 0.03 0.03 0.02 0.02 0.02
0.04 0.04 0.03 0.02 0.02 0.01 0.01 0.01 0.02 0.03 0.03 0.05 0.05 0.05 0.04 0.04 0.04 0.04 0.05 0.05 0.06 0.05 0.03 0.02 0.02 0.02 0.02 0.02 0.03 0.03 0.03 0.03 0.03 0.03 0.03 0.03 0.02 0.02
0.05 0.05 0.03 0.02 0.02 0.03 0.03 0.02 0.02 0.01 0.02 0.04 0.06 0.05 0.04 0.05 0.05 0.05 0.05 0.06 0.06 0.06 0.06 0.04 0.02 0.02 0.01 0.01 0.01 0.02 0.02 0.02 0.02 0.03 0.03 0.03 0.02 0.02
0.05 0.05 0.05 0.04 0.03 0.03 0.04 0.04 0.05 0.04 0.04 0.03 0.04 0.04 0.04 0.04 0.05 0.05 0.04 0.04 0.04 0.05 0.06 0.05 0.03 0.02 0.01 0.01 0.01 0.01 0.01 0.01 0.01 0.02 0.02 0.02 0.02 0.02
0.04 0.02 0.03 0.03 0.02 0.02 0.03 0.05 0.05 0.05 0.03 0.02 0.02 0.02 0.01 0.02 0.03 0.04 0.03 0.03 0.04 0.04 0.04 0.05 0.03 0.02 0.02 0.02 0.01 0.01 0.01 0.01 0.01 0.02 0.02 0.02 0.01 0.01
0.05 0.04 0.02 0.01 0.02 0.02 0.03 0.04 0.05 0.05 0.04 0.03 0.02 0.02 0.01 0.02 0.02 0.03 0.04 0.04 0.05 0.05 0.05 0.05 0.04 0.03 0.02 0.02 0.01 0.00 0.00 0.01 0.01 0.01 0.01 0.01 0.01 0.01
0.05 0.04 0.02 0.01 0.01 0.01 0.01 0.03 0.03 0.02 0.04 0.04 0.04 0.03 0.03 0.04 0.03 0.03 0.04 0.04 0.05 0.06 0.06 0.06 0.04 0.03 0.02 0.01 0.01 0.01 0.01 0.00 0.01 0.01 0.01 0.01 0.01 0.00
0.03 0.02 0.01 0.00 0.00 0.00 0.01 0.01 0.01 0.02 0.03 0.04 0.04 0.04 0.04 0.04 0.03 0.03 0.04 0.04 0.05 0.05 0.05 0.05 0.05 0.04 0.03 0.03 0.02 0.01 0.01 0.00 0.00 0.00 0.01 0.01 0.01 0.00
0.02 0.01 0.00 0.00 0.01 0.01 0.01 0.01 0.02 0.03 0.04 0.04 0.05 0.05 0.05 0.04 0.04 0.04 0.04 0.04 0.04 0.04 0.03 0.04 0.05 0.04 0.05 0.04 0.02 0.01 0.01 0.01 0.00 0.01 0.01 0.01 0.01 0.00
0.02 0.01 0.01 0.01 0.01 0.02 0.02 0.01 0.02 0.03 0.04 0.04 0.05 0.07 0.07 0.05 0.05 0.05 0.04 0.04 0.04 0.04 0.04 0.04 0.05 0.05 0.04 0.04 0.04 0.03 0.02 0.02 0.01 0.01 0.02 0.02 0.02 0.01
0.02 0.03 0.04 0.04 0.04 0.04 0.04 0.04 0.04 0.04 0.04 0.04 0.05 0.06 0.07 0.06 0.05 0.05 0.05 0.06 0.05 0.06 0.06 0.04 0.04 0.05 0.05 0.04 0.04 0.03 0.03 0.02 0.01 0.01 0.02 0.02 0.01 0.01
0.01 0.03 0.04 0.04 0.04 0.04 0.03 0.03 0.04 0.04 0.04 0.04 0.05 0.06 0.07 0.07 0.06 0.05 0.05 0.06 0.05 0.05 0.06 0.05 0.04 0.05 0.05 0.03 0.02 0.02 0.02 0.01 0.01 0.01 0.01 0.01 0.01 0.00
0.01 0.02 0.03 0.03 0.03 0.03 0.02 0.02 0.02 0.02 0.03 0.04 0.04 0.04 0.05 0.05 0.05 0.04 0.04 0.05 0.05 0.03 0.04 0.03 0.03 0.04 0.04 0.03 0.01 0.01 0.01 0.01 0.01 0.01 0.01 0.00 0.00 0.00
0.01 0.01 0.01 0.01 0.01 0.01 0.02 0.02 0.01 0.01 0.02 0.02 0.03 0.04 0.03 0.03 0.03 0.03 0.03 0.04 0.05 0.03 0.02 0.02 0.02 0.02 0.02 0.01 0.01 0.00 0.00 0.00 0.01 0.01 0.00 0.00 0.00 0.00
0.01 0.01 0.01 0.01 0.01 0.01 0.02 0.02 0.02 0.02 0.02 0.02 0.03 0.03 0.03 0.03 0.02 0.02 0.02 0.03 0.04 0.02 0.02 0.01 0.01 0.01 0.01 0.01 0.01 0.00 0.00 0.00 0.00 0.00 0.00 0.00 0.00 0.00
0.01 0.01 0.00 0.00 0.00 0.01 0.02 0.02 0.02 0.03 0.02 0.02 0.02 0.02 0.02 0.02 0.02 0.02 0.02 0.03 0.03 0.02 0.02 0.02 0.01 0.01 0.01 0.01 0.01 0.01 0.00 0.00 0.00 0.00 0.00 0.00 0.00 0.00
0.02 0.01 0.00 0.00 0.01 0.01 0.01 0.01 0.01 0.02 0.03 0.02 0.01 0.02 0.03 0.03 0.03 0.03 0.04 0.03 0.04 0.03 0.02 0.02 0.02 0.01 0.01 0.01 0.01 0.01 0.01 0.00 0.00 0.00 0.00 0.00 0.00 0.00
MSLP
1012.22 1012.50 1012.86 1013.26 1013.64 1013.97 1014.23 1014.40 1014.52 1014.61 1014.72 1014.89 1015.14 1015.48 1015.89 1016.34 1016.77 1017.15 1017.42 1017.55 1017.52 1017.35 1017.06 1016.68 1016.26 1015.83 1015.43 1015.08 1014.79 1014.57 1014.41 1014.31 1014.28 1014.33 1014.45 1014.67 1014.99 1015.40
1012.43 1012.62 1012.88 1013.18 1013.47 1013.73 1013.94 1014.11 1014.23 1014.36 1014.51 1014.72 1015.00 1015.37 1015.80 1016.25 1016.69 1017.08 1017.36 1017.53 1017.57 1017.48 1017.30 1017.04 1016.75 1016.46 1016.18 1015.94 1015.74 1015.58 1015.47 1015.40 1015.37 1015.39 1015.48 1015.64 1015.90 1016.24
1012.72 1012.83 1012.99 1013.19 1013.40 1013.59 1013.76 1013.90 1014.03 1014.18 1014.35 1014.59 1014.89 1015.27 1015.68 1016.12 1016.55 1016.92 1017.21 1017.40 1017.49 1017.48 1017.39 1017.25 1017.09 1016.92 1016.78 1016.65 1016.56 1016.49 1016.43 1016.40 1016.38 1016.40 1016.46 1016.58 1016.76 1017.03
1013.06 1013.09 1013.17 1013.29 1013.42 1013.55 1013.67 1013.79 1013.92 1014.07 1014.26 1014.50 1014.80 1015.15 1015.54 1015.94 1016.33 1016.67 1016.94 1017.13 1017.25 1017.29 1017.28 1017.24 1017.19 1017.15 1017.12 1017.12 1017.12 1017.14 1017.15 1017.17 1017.19 1017.21 1017.26 1017.35 1017.50 1017.70
1013.40 1013.37 1013.39 1013.43 1013.50 1013.59 1013.68 1013.78 1013.89 1014.03 1014.21 1014.44 1014.71 1015.02 1015.36 1015.70 1016.02 1016.31 1016.55 1016.73 1016.85 1016.93 1016.97 1017.01 1017.04 1017.10 1017.17 1017.26 1017.36 1017.46 1017.55 1017.63 1017.69 1017.75 1017.82 1017.91 1018.03 1018.20
1013.71 1013.64 1013.60 1013.60 1013.62 1013.67 1013.73 1013.81 1013.91 1014.04 1014.19 1014.38 1014.61 1014.86 1015.13 1015.40 1015.66 1015.88 1016.07 1016.22 1016.34 1016.43 1016.50 1016.58 1016.68 1016.79 1016.93 1017.09 1017.26 1017.43 1017.59 1017.74 1017.86 1017.98 1018.09 1018.20 1018.33 1018.49
1013.96 1013.85 1013.77 1013.74 1013.74 1013.77 1013.81 1013.87 1013.96 1014.05 1014.18 1014.32 1014.49 1014.67 1014.87 1015.07 1015.26 1015.42 1015.56 1015.68 1015.77 1015.86 1015.94 1016.04 1016.16 1016.30 1016.48 1016.68 1016.89 1017.11 1017.33 1017.53 1017.72 1017.90 1018.07 1018.23 1018.39 1018.56
1014.11 1013.98 1013.89 1013.85 1013.83 1013.84 1013.88 1013.93 1013.99 1014.06 1014.14 1014.24 1014.35 1014.48 1014.60 1014.74 1014.86 1014.97 1015.07 1015.16 1015.23 1015.30 1015.37 1015.46 1015.58 1015.72 1015.89 1016.09 1016.32 1016.56 1016.81 1017.06 1017.31 1017.55 1017.78 1018.00 1018.21 1018.41
1014.19 1014.06 1013.96 1013.90 1013.88 1013.89 1013.91 1013.95 1013.99 1014.04 1014.09 1014.14 1014.21 1014.28 1014.35 1014.43 1014.51 1014.58 1014.65 1014.71 1014.76 1014.81 1014.86 1014.93 1015.01 1015.12 1015.27 1015.44 1015.65 1015.88 1016.14 1016.42 1016.70 1016.99 1017.27 1017.54 1017.79 1018.02
1014.23 1014.09 1013.99 1013.93 1013.90 1013.90 1013.92 1013.94 1013.97 1013.99 1014.01 1014.03 1014.05 1014.08 1014.12 1014.17 1014.22 1014.27 1014.32 1014.36 1014.40 1014.43 1014.45 1014.48 1014.52 1014.58 1014.67 1014.79 1014.96 1015.16 1015.40 1015.67 1015.96 1016.27 1016.58 1016.88 1017.16 1017.39
1014.26 1014.12 1014.02 1013.95 1013.91 1013.90 1013.90 1013.90 1013.91 1013.91 1013.90 1013.90 1013.90 1013.90 1013.92 1013.95 1013.98 1014.03 1014.07 1014.11 1014.13 1014.14 1014.14 1014.13 1014.13 1014.13 1014.15 1014.21 1014.31 1014.45 1014.65 1014.88 1015.16 1015.46 1015.77 1016.07 1016.34 1016.57
1014.35 1014.20 1014.07 1013.98 1013.92 1013.88 1013.86 1013.84 1013.82 1013.80 1013.77 1013.75 1013.73 1013.72 1013.73 1013.75 1013.78 1013.83 1013.87 1013.91 1013.93 1013.93 1013.90 1013.86 1013.81 1013.75 1013.72 1013.70 1013.73 1013.81 1013.94 1014.12 1014.34 1014.60 1014.88 1015.14 1015.38 1015.58
1014.51 1014.33 1014.17 1014.05 1013.94 1013.86 1013.80 1013.75 1013.70 1013.65 1013.60 1013.56 1013.53 1013.52 1013.52 1013.54 1013.58 1013.63 1013.68 1013.72 1013.74 1013.73 1013.69 1013.63 1013.54 1013.44 1013.35 1013.27 1013.23 1013.23 1013.29 1013.40 1013.56 1013.75 1013.96 1014.16 1014.34 1014.48
1014.72 1014.50 1014.30 1014.11 1013.95 1013.82 1013.71 1013.61 1013.52 1013.45 1013.39 1013.33 1013.30 1013.28 1013.29 1013.31 1013.35 1013.40 1013.46 1013.50 1013.52 1013.51 1013.47 1013.39 1013.29 1013.16 1013.03 1012.90 1012.80 1012.74 1012.72 1012.75 1012.82 1012.93 1013.05 1013.17 1013.28 1013.35
1014.94 1014.66 1014.40 1014.15 1013.92 1013.72 1013.55 1013.41 1013.29 1013.19 1013.11 1013.05 1013.02 1013.00 1013.01 1013.03 1013.08 1013.13 1013.19 1013.23 1013.25 1013.25 1013.21 1013.14 1013.02 1012.89 1012.73 1012.58 1012.43 1012.31 1012.22 1012.17 1012.15 1012.16 1012.19 1012.22 1012.24 1012.24
1015.08 1014.75 1014.42 1014.10 1013.80 1013.54 1013.32 1013.13 1012.98 1012.87 1012.78 1012.72 1012.68 1012.67 1012.68 1012.71 1012.75 1012.81 1012.86 1012.91 1012.93 1012.93 1012.90 1012.83 1012.73 1012.59 1012.43 1012.26 1012.08 1011.91 1011.77 1011.64 1011.54 1011.45 1011.39 1011.32 1011.26 1011.18
1015.07 1014.68 1014.29 1013.91 1013.56 1013.25 1012.99 1012.77 1012.60 1012.48 1012.39 1012.34 1012.31 1012.31 1012.32 1012.35 1012.40 1012.45 1012.49 1012.53 1012.56 1012.57 1012.54 1012.48 1012.39 1012.26 1012.10 1011.92 1011.72 1011.52 1011.32 1011.13 1010.95 1010.78 1010.63 1010.48 1010.34 1010.21
1014.84 1014.42 1013.98 1013.56 1013.18 1012.84 1012.56 1012.33 1012.17 1012.05 1011.97 1011.94 1011.92 1011.93 1011.95 1011.98 1012.02 1012.06 1012.10 1012.13 1012.15 1012.15 1012.12 1012.07 1011.98 1011.85 1011.70 1011.51 1011.29 1011.06 1010.82 1010.58 1010.34 1010.10 1009.88 1009.67 1009.47 1009.29
1014.39 1013.95 1013.50 1013.06 1012.67 1012.33 1012.05 1011.84 1011.69 1011.59 1011.54 1011.52 1011.53 1011.55 1011.57 1011.60 1011.63 1011.65 1011.67 1011.68 1011.69 1011.67 1011.64 1011.58 1011.49 1011.36 1011.20 1011.00 1010.77 1010.51 1010.24 1009.95 1009.67 1009.38 1009.11 1008.86 1008.62 1008.41
1013.75 1013.31 1012.87 1012.45 1012.07 1011.75 1011.50 1011.32 1011.20 1011.13 1011.10 1011.10 1011.12 1011.15 1011.17 1011.19 1011.20 1011.21 1011.20 1011.19 1011.17 1011.13 1011.08 1011.00 1010.89 1010.75 1010.58 1010.36 1010.11 1009.83 1009.53 1009.22 1008.90 1008.59 1008.29 1008.00 1007.75 1007.53
1012.99 1012.57 1012.15 1011.77 1011.43 1011.15 1010.94 1010.79 1010.70 1010.66 1010.66 1010.67 1010.70 1010.72 1010.74 1010.74 1010.72 1010.70 1010.67 1010.62 1010.57 1010.50 1010.42 1010.32 1010.19 1010.02 1009.82 1009.59 1009.32 1009.02 1008.70 1008.36 1008.03 1007.70 1007.39 1007.11 1006.85 1006.63
1012.19 1011.80 1011.42 1011.08 1010.78 1010.55 1010.37 1010.26 1010.20 1010.17 1010.18 1010.20 1010.22 1010.22 1010.22 1010.19 1010.15 1010.09 1010.03 1009.95 1009.86 1009.77 1009.66 1009.53 1009.37 1009.18 1008.96 1008.71 1008.42 1008.10 1007.77 1007.42 1007.08 1006.76 1006.45 1006.18 1005.93 1005.72
1011.42 1011.06 1010.72 1010.42 1010.16 1009.96 1009.82 1009.72 1009.67 1009.65 1009.65 1009.65 1009.65 1009.63 1009.59 1009.53 1009.45 1009.37 1009.27 1009.16 1009.05 1008.93 1008.80 1008.65 1008.47 1008.27 1008.03 1007.76 1007.45 1007.13 1006.79 1006.45 1006.12 1005.80 1005.51 1005.25 1005.03 1004.83
Thickness
5622 5622 5623 5624 5626 5627 5629 5629 5628 5628 5631 5636 5639 5641 5642 5643 5642 5643 5644 5644 5645 5647 5648 5648 5649 5650 5651 5651 5651 5651 5651 5651 5651 5650 5649 5648 5646 5644
5614 5614 5615 5616 5617 5619 5620 5622 5624 5623 5623 5628 5630 5633 5634 5634 5635 5636 5637 5638 5639 5640 5641 5641 5643 5644 5644 5645 5645 5645 5645 5645 5644 5643 5642 5641 5640 5638
5607 5607 5607 5608 5609 5610 5612 5614 5615 5617 5616 5619 5622 5624 5625 5626 5626 5628 5630 5631 5632 5633 5634 5635 5636 5637 5638 5638 5638 5638 5638 5637 5637 5636 5635 5634 5633 5632
5598 5599 5600 5601 5602 5603 5603 5605 5607 5609 5609 5609 5612 5614 5616 5618 5619 5620 5623 5625 5626 5627 5628 5628 5629 5630 5631 5631 5631 5631 5631 5631 5630 5629 5628 5627 5627 5625
5590 5591 5592 5592 5593 5594 5596 5597 5599 5602 5603 5603 5604 5607 5609 5610 5612 5613 5616 5618 5620 5621 5622 5622 5623 5623 5623 5624 5624 5624 5624 5624 5623 5622 5622 5621 5620 5619
5584 5584 5584 5585 5585 5586 5588 5590 5592 5594 5596 5597 5598 5599 5602 5603 5605 5606 5608 5611 5613 5615 5616 5616 5616 5617 5617 5617 5618 5618 5617 5617 5617 5616 5615 5615 5614 5612
5577 5577 5578 5578 5578 5579 5581 5582 5584 5586 5588 5590 5591 5593 5595 5596 5597 5600 5602 5604 5606 5609 5610 5611 5611 5610 5610 5610 5610 5611 5611 5611 5610 5610 5609 5608 5607 5606
5571 5572 5572 5572 5573 5573 5574 5575 5577 5578 5580 5582 5585 5586 5588 5590 5593 5595 5596 5598 5599 5603 5604 5605 5607 5606 5606 5605 5606 5606 5606 5605 5605 5604 5603 5602 5601 5600
5566 5567 5568 5569 5567 5567 5568 5570 5571 5572 5573 5575 5577 5580 5583 5585 5587 5588 5590 5591 5594 5598 5599 5599 5601 5601 5602 5602 5602 5601 5601 5600 5600 5599 5598 5597 5596 5594
5563 5563 5562 5562 5561 5560 5563 5565 5566 5568 5569 5571 5573 5575 5577 5579 5581 5583 5584 5586 5588 5591 5593 5592 5595 5596 5599 5598 5597 5597 5596 5595 5595 5594 5593 5592 5590 5589
5560 5559 5558 5557 5554 5555 5557 5558 5559 5561 5563 5565 5567 5569 5571 5573 5574 5576 5578 5579 5581 5584 5588 5588 5590 5591 5593 5593 5593 5593 5592 5591 5590 5589 5589 5587 5586 5584
5556 5555 5553 5552 5550 5550 5551 5553 5554 5556 5559 5561 5563 5564 5566 5568 5569 5570 5573 5573 5575 5578 5583 5584 5585 5586 5586 5589 5589 5588 5587 5586 5586 5585 5585 5584 5582 5579
5552 5552 5550 5548 5547 5547 5547 5548 5549 5550 5554 5557 5559 5562 5564 5566 5567 5568 5569 5570 5572 5574 5578 5580 5581 5582 5583 5584 5585 5585 5585 5584 5583 5582 5582 5581 5580 5578
5548 5549 5548 5546 5545 5545 5546 5547 5547 5548 5551 5553 5556 5558 5560 5563 5565 5567 5568 5568 5570 5572 5575 5576 5577 5578 5579 5580 5581 5583 5584 5584 5583 5582 5582 5581 5578 5577
5546 5546 5545 5545 5545 5546 5547 5547 5547 5548 5550 5551 5553 5556 5559 5562 5563 5564 5565 5566 5567 5570 5572 5573 5575 5576 5577 5578 5580 5581 5581 5582 5583 5583 5582 5580 5579 5577
5546 5546 5546 5547 5546 5547 5548 5549 5549 5550 5551 5551 5553 5555 5558 5560 5560 5562 5562 5563 5564 5567 5570 5572 5574 5574 5575 5577 5578 5578 5580 5581 5582 5583 5582 5582 5581 5579
5542 5545 5548 5549 5550 5551 5552 5553 5553 5552 5552 5553 5554 5554 5556 5558 5559 5561 5561 5562 5562 5564 5567 5570 5573 5574 5575 5575 5575 5577 5579 5580 5582 5583 5582 5581 5581 5581
5543 5546 5549 5551 5553 5554 5555 5556 5556 5555 5556 5556 5555 5556 5557 5558 5559 5561 5562 5562 5562 5564 5566 5569 5570 5570 5571 5574 5576 5576 5578 5579 5581 5582 5581 5579 5579 5581
5546 5550 5552 5554 5556 5557 5558 5557 5557 5558 5558 5557 5557 5557 5558 5560 5560 5561 5561 5562 5563 5565 5567 5569 5569 5567 5566 5568 5575 5579 5578 5578 5579 5579 5580 5580 5580 5581
5553 5555 5556 5558 5560 5560 5560 5560 5560 5559 5559 5559 5559 5559 5559 5560 5561 5561 5562 5563 5564 5565 5567 5569 5569 5569 5569 5570 5573 5577 5579 5578 5577 5577 5579 5580 5580 5582
5562 5562 5562 5563 5563 5563 5562 5562 5561 5560 5560 5560 5560 5560 5561 5561 5561 5562 5563 5563 5563 5564 5565 5567 5571 5573 5574 5573 5573 5575 5578 5580 5580 5578 5578 5577 5577 5577
5565 5565 5566 5566 5566 5565 5565 5564 5563 5561 5561 5561 5561 5561 5561 5561 5561 5562 5563 5563 5564 5565 5567 5569 5571 5571 5571 5570 5571 5573 5575 5578 5579 5579 5579 5579 5575 5574
5568 5568 5568 5568 5568 5568 5567 5566 5565 5563 5562 5562 5562 5561 5561 5561 5561 5562 5563 5563 5564 5565 5566 5567 5568 5569 5569 5570 5571 5572 5574 5575 5576 5576 5576 5578 5578 5578